Showing default

QIANFAN-71, 62801

Orbit data source: Space-Track

QIANFAN-71, 62801 is a Chinese payload satellite in LEO that was launched on Thu, 23 Jan 2025 UTC via a CHANG ZHENG 6A launch vehicle from the Taiyaun Space Center, China (TSC). Payload-class satellites include a variety of spacecraft equipped with specific instruments for various scientific and technological missions. These include communications satellites like Starlink; space stations such as the ISS; scientific satellites like the Hubble; Earth observation satellites from companies like Planet Labs, Umbra, and HawkEye 360; GPS; miniature CubeSats for education and research; and military/defense satellites.

Loading next visibility...
Identifier
62801, 2025-016S
Orbit
LEO
Country
Flag of CNCN / PRC
Related business
Manufacturer
SECM
Mission
Operational Commercial Communications
Bus & Motor
QIANFAN, Unknown motor
Mass
267 kg wet, ~267 kg dry
Launch date (UTC)
2025-01-23 (2 years ago)
Launch vehicle
CHANG ZHENG 6A
Launch site
Taiyaun Space Center, China (TSC)
Object type
Payload
Rocket body
Debris
Shape & HBR
Box + 1 Pan, 5.0 m
Radar Cross Section
13.200 m², Large (>1 m²)

Expand to show TLE details & history
Last TLE update: 8 hours ago

TLE from 8 hours ago
0 QIANFAN-71
1 62801U 25016S   26257.59443225  .00000037  00000-0  39017-4 0  9991
2 62801  88.9659  74.4214 0013854 272.0616  87.8949 13.51026560 84489
Epoch: 2026-09-14T14:15Z
TLE epoch observation values (Epoch: 2026-09-14T14:15:58.946Z)
Latitude
0.00002°
Longitude
-133.14669°
Altitude
1,071.072 km
Speed
7.317 km/s
True Right ascension
04h 57m 41s
True Declination
0° 00' 00"
Sunlit
Object was in daylight at epoch
Visualization orbit readout
Latitude
Unknown
Longitude
Unknown
Altitude
Unknown
Speed
Unknown
Apparent Right ascension
Unknown
Apparent Declination
Unknown
Sunlit
N/A
Visualization observer readout
Local Sidereal Time
14:57:57
Azimuth
Unknown
Elevation
Unknown
Doppler factor
Unknown
Orbital elements
Apogee altitude
1,075.848 km
Perigee altitude
1,055.223 km
Semi-major axis
7,443.672 km
Eccentricity
0.00139
Inclination
88.9659°
RAAN
74.4214°
Arg. of periapsis
272.0616°
True anomaly
88.05356°
Mean anomaly
87.8949°
Eccentric anomaly
87.97423°
Mean motion
3.37958 °/min
Orbital period
106.52 mins
BSTAR
0.000039017
Loading maneuver chart data...
Computing Atmospheric mass density...
Loading historical data...
Loading historical data...
Loading historical data...
Loading historical data...
Loading historical data...
Loading historical data...
Loading historical data...

Documentation

Showing up to 5 results
|